| time (UTC) | temp C | wind direction | speed KPH | gust KPH | rain 1hr cm | rain 24hr cm | rain mn cm | humidity % | barometer mb |
| 20260503224340 | 14 | 232 | 0.0 | 1.6 | 0.00 | 0.00 | 0.00 | 37 | 1015.7 |
| 20260503223837 | 14 | 222 | 1.6 | 1.6 | 0.00 | 0.00 | 0.00 | 38 | 1015.9 |
| 20260503223335 | 13 | 339 | 3.2 | 4.8 | 0.00 | 0.00 | 0.00 | 38 | 1015.7 |
| 20260503222830 | 14 | 261 | 1.6 | 1.6 | 0.00 | 0.00 | 0.00 | 38 | 1015.9 |
| 20260503222329 | 14 | 307 | 4.8 | 4.8 | 0.00 | 0.00 | 0.00 | 37 | 1016.0 |
| 20260503221827 | 14 | 270 | 4.8 | 4.8 | 0.00 | 0.00 | 0.00 | 40 | 1016.1 |
| 20260503221325 | 14 | 216 | 3.2 | 4.8 | 0.00 | 0.00 | 0.00 | 39 | 1016.0 |
| 20260503220815 | 13 | 186 | 9.7 | 11.3 | 0.00 | 0.00 | 0.00 | 38 | 1015.9 |
| 20260503220312 | 13 | 129 | 11.3 | 12.9 | 0.00 | 0.00 | 0.00 | 38 | 1015.8 |
| 20260503215809 | 14 | 218 | 3.2 | 4.8 | 0.00 | 0.00 | 0.00 | 37 | 1015.8 |
| 20260503215306 | 13 | 201 | 3.2 | 4.8 | 0.00 | 0.00 | 0.00 | 39 | 1015.9 |
| 20260503214804 | 14 | 205 | 3.2 | 4.8 | 0.00 | 0.00 | 0.00 | 38 | 1016.0 |
| 20260503214301 | 15 | 227 | 1.6 | 1.6 | 0.00 | 0.00 | 0.00 | 38 | 1016.0 |
| 20260503213758 | 13 | 232 | 1.6 | 1.6 | 0.00 | 0.00 | 0.00 | 39 | 1015.9 |
| 20260503213255 | 14 | 220 | 6.4 | 9.7 | 0.00 | 0.00 | 0.00 | 38 | 1015.9 |
| 20260503212752 | 15 | 223 | 8.0 | 11.3 | 0.00 | 0.00 | 0.00 | 37 | 1015.9 |
| 20260503212250 | 15 | 226 | 4.8 | 6.4 | 0.00 | 0.00 | 0.00 | 38 | 1016.0 |
| 20260503211747 | 15 | 191 | 3.2 | 4.8 | 0.00 | 0.00 | 0.00 | 41 | 1015.9 |
| 20260503211243 | 14 | 97 | 8.0 | 12.9 | 0.00 | 0.00 | 0.00 | 38 | 1015.6 |
| 20260503210739 | 13 | 232 | 3.2 | 4.8 | 0.00 | 0.00 | 0.00 | 41 | 1015.9 |
| 20260503210237 | 14 | 208 | 8.0 | 11.3 | 0.00 | 0.00 | 0.00 | 37 | 1015.8 |
| 20260503205732 | 15 | 242 | 1.6 | 1.6 | 0.00 | 0.00 | 0.00 | 36 | 1015.9 |
| 20260503205228 | 15 | 210 | 0.0 | 1.6 | 0.00 | 0.00 | 0.00 | 36 | 1015.9 |
| 20260503204724 | 15 | 247 | 3.2 | 6.4 | 0.00 | 0.00 | 0.00 | 36 | 1016.0 |
| 20260503204223 | 14 | 355 | 4.8 | 9.7 | 0.00 | 0.00 | 0.00 | 38 | 1016.0 |
| 20260503203720 | 14 | 102 | 20.9 | 24.1 | 0.00 | 0.00 | 0.00 | 36 | 1016.3 |
| 20260503203217 | 15 | 167 | 3.2 | 4.8 | 0.00 | 0.00 | 0.00 | 35 | 1016.3 |
| 20260503202714 | 15 | 199 | 4.8 | 6.4 | 0.00 | 0.00 | 0.00 | 35 | 1016.2 |
| 20260503202212 | 14 | 189 | 3.2 | 4.8 | 0.00 | 0.00 | 0.00 | 36 | 1016.3 |
| 20260503201710 | 14 | 341 | 6.4 | 6.4 | 0.00 | 0.00 | 0.00 | 36 | 1016.6 |
| 20260503201207 | 15 | 130 | 3.2 | 9.7 | 0.00 | 0.00 | 0.00 | 38 | 1016.5 |
| 20260503200703 | 15 | 286 | 9.7 | 11.3 | 0.00 | 0.00 | 0.00 | 39 | 1016.6 |
| 20260503200159 | 14 | 196 | 3.2 | 4.8 | 0.00 | 0.00 | 0.00 | 38 | 1016.7 |
| 20260503195656 | 14 | 218 | 6.4 | 9.7 | 0.00 | 0.00 | 0.00 | 40 | 1016.7 |
| 20260503195153 | 15 | 51 | 6.4 | 6.4 | 0.00 | 0.00 | 0.00 | 36 | 1016.8 |
| 20260503194650 | 14 | 254 | 6.4 | 6.4 | 0.00 | 0.00 | 0.00 | 35 | 1016.9 |
| 20260503194146 | 14 | 341 | 4.8 | 9.7 | 0.00 | 0.00 | 0.00 | 36 | 1016.8 |
| 20260503193643 | 13 | 253 | 1.6 | 3.2 | 0.00 | 0.00 | 0.00 | 39 | 1016.9 |
| 20260503193138 | 14 | 227 | 3.2 | 4.8 | 0.00 | 0.00 | 0.00 | 37 | 1016.9 |
| 20260503192634 | 14 | 268 | 4.8 | 6.4 | 0.00 | 0.00 | 0.00 | 38 | 1017.0 |
| 20260503192130 | 13 | 50 | 12.9 | 14.5 | 0.00 | 0.00 | 0.00 | 37 | 1017.0 |
| 20260503191627 | 13 | 147 | 9.7 | 11.3 | 0.00 | 0.00 | 0.00 | 38 | 1017.4 |
| 20260503191124 | 13 | 39 | 4.8 | 6.4 | 0.00 | 0.00 | 0.00 | 38 | 1017.2 |
| 20260503190621 | 13 | 59 | 3.2 | 4.8 | 0.00 | 0.00 | 0.00 | 38 | 1017.3 |
| 20260503190118 | 15 | 11 | 3.2 | 4.8 | 0.00 | 0.00 | 0.00 | 37 | 1017.4 |
| 20260503185614 | 14 | 160 | 3.2 | 4.8 | 0.00 | 0.00 | 0.00 | 42 | 1017.5 |
| 20260503185114 | 14 | 111 | 3.2 | 4.8 | 0.00 | 0.00 | 0.00 | 38 | 1017.7 |
| 20260503184609 | 14 | 353 | 6.4 | 11.3 | 0.00 | 0.00 | 0.00 | 39 | 1017.7 |
| 20260503184106 | 13 | 189 | 4.8 | 6.4 | 0.00 | 0.00 | 0.00 | 39 | 1017.8 |
| 20260503183603 | 13 | 200 | 1.6 | 3.2 | 0.00 | 0.00 | 0.00 | 40 | 1017.9 |
| 20260503183100 | 13 | 28 | 8.0 | 9.7 | 0.00 | 0.00 | 0.00 | 38 | 1017.7 |
| 20260503182559 | 14 | 16 | 6.4 | 9.7 | 0.00 | 0.00 | 0.00 | 39 | 1017.9 |
| 20260503182056 | 14 | 6 | 4.8 | 6.4 | 0.00 | 0.00 | 0.00 | 40 | 1017.9 |
| 20260503181553 | 13 | 207 | 4.8 | 4.8 | 0.00 | 0.00 | 0.00 | 45 | 1017.7 |
| 20260503181049 | 12 | 112 | 9.7 | 11.3 | 0.00 | 0.00 | 0.00 | 40 | 1017.9 |
| 20260503180546 | 13 | 49 | 8.0 | 11.3 | 0.00 | 0.00 | 0.00 | 38 | 1018.0 |
| 20260503180044 | 13 | 231 | 4.8 | 6.4 | 0.00 | 0.00 | 0.00 | 42 | 1017.9 |
| 20260503175541 | 13 | 119 | 3.2 | 3.2 | 0.00 | 0.00 | 0.00 | 44 | 1018.2 |
| 20260503175038 | 13 | 64 | 6.4 | 6.4 | 0.00 | 0.00 | 0.00 | 40 | 1018.1 |
| 20260503174535 | 13 | 46 | 11.3 | 14.5 | 0.00 | 0.00 | 0.00 | 40 | 1018.2 |
| 20260503174031 | 13 | 250 | 4.8 | 6.4 | 0.00 | 0.00 | 0.00 | 40 | 1018.2 |
| 20260503173521 | 12 | 105 | 6.4 | 6.4 | 0.00 | 0.00 | 0.00 | 43 | 1018.5 |
| 20260503173018 | 13 | 267 | 8.0 | 12.9 | 0.00 | 0.00 | 0.00 | 43 | 1018.3 |
| 20260503172516 | 13 | 247 | 4.8 | 6.4 | 0.00 | 0.00 | 0.00 | 40 | 1018.3 |
| 20260503172013 | 13 | 355 | 6.4 | 9.7 | 0.00 | 0.00 | 0.00 | 42 | 1018.6 |
| 20260503171509 | 12 | 228 | 1.6 | 3.2 | 0.00 | 0.00 | 0.00 | 41 | 1018.4 |
| 20260503171006 | 12 | 175 | 6.4 | 12.9 | 0.00 | 0.00 | 0.00 | 42 | 1018.7 |
| 20260503170457 | 11 | 51 | 4.8 | 4.8 | 0.00 | 0.00 | 0.00 | 46 | 1018.8 |
| 20260503150849 | 10 | 352 | 6.4 | 6.4 | 0.00 | 0.00 | 0.00 | 48 | 1019.5 |
| 20260503150345 | 10 | 99 | 9.7 | 12.9 | 0.00 | 0.00 | 0.00 | 44 | 1019.6 |
| 20260503140309 | 8 | 229 | 1.6 | 3.2 | 0.00 | 0.00 | 0.00 | 56 | 1019.8 |
| 20260503131239 | 7 | 201 | 0.0 | 0.0 | 0.00 | 0.00 | 0.00 | 67 | 1019.8 |
| 20260503130737 | 7 | 186 | 11.3 | 12.9 | 0.00 | 0.00 | 0.00 | 66 | 1019.9 |
| 20260503130234 | 6 | 314 | 3.2 | 3.2 | 0.00 | 0.00 | 0.00 | 68 | 1019.8 |
| 20260503120200 | -1 | 264 | 0.0 | 0.0 | 0.00 | 0.00 | 0.00 | 99 | 1019.5 |
| 20260503110627 | -2 | 264 | 0.0 | 0.0 | 0.00 | 0.00 | 0.00 | 99 | 1019.3 |
| 20260503110124 | -2 | 264 | 0.0 | 0.0 | 0.00 | 0.00 | 0.00 | 99 | 1019.2 |
| 20260503090508 | 0 | 263 | 0.0 | 0.0 | 0.00 | 0.00 | 0.00 | 99 | 1018.4 |
| 20260503081428 | 0 | 264 | 0.0 | 0.0 | 0.00 | 0.00 | 0.00 | 99 | 1018.3 |
| 20260503080926 | 0 | 264 | 0.0 | 0.0 | 0.00 | 0.00 | 0.00 | 99 | 1018.2 |
| 20260503080422 | 0 | 264 | 0.0 | 0.0 | 0.00 | 0.00 | 0.00 | 99 | 1018.1 |
| 20260503072858 | -1 | 264 | 0.0 | 0.0 | 0.00 | 0.00 | 0.00 | 99 | 1018.0 |
| 20260503072355 | -1 | 264 | 0.0 | 0.0 | 0.00 | 0.00 | 0.00 | 99 | 1018.1 |
| 20260503071852 | -1 | 264 | 0.0 | 0.0 | 0.00 | 0.00 | 0.00 | 99 | 1018.1 |
| 20260503071349 | -1 | 264 | 0.0 | 0.0 | 0.00 | 0.00 | 0.00 | 99 | 1018.0 |
| 20260503070845 | -1 | 264 | 0.0 | 0.0 | 0.00 | 0.00 | 0.00 | 99 | 1017.9 |
| 20260503070343 | -1 | 264 | 0.0 | 0.0 | 0.00 | 0.00 | 0.00 | 99 | 1017.9 |
| 20260503052454 | 1 | 264 | 0.0 | 0.0 | 0.00 | 0.00 | 0.00 | 96 | 1018.0 |
| 20260503051950 | 1 | 264 | 0.0 | 0.0 | 0.00 | 0.00 | 0.00 | 96 | 1018.0 |
| 20260503051446 | 1 | 264 | 0.0 | 0.0 | 0.00 | 0.00 | 0.00 | 96 | 1018.1 |
| 20260503050944 | 1 | 264 | 0.0 | 0.0 | 0.00 | 0.00 | 0.00 | 96 | 1017.9 |
| 20260503050439 | 1 | 264 | 0.0 | 0.0 | 0.00 | 0.00 | 0.00 | 96 | 1018.0 |
| 20260503045937 | 2 | 264 | 0.0 | 0.0 | 0.00 | 0.00 | 0.00 | 96 | 1018.1 |
| 20260503045435 | 2 | 264 | 0.0 | 0.0 | 0.00 | 0.00 | 0.00 | 96 | 1018.1 |
| 20260503044931 | 2 | 264 | 0.0 | 0.0 | 0.00 | 0.00 | 0.00 | 96 | 1018.1 |
| 20260503044428 | 2 | 264 | 0.0 | 0.0 | 0.00 | 0.00 | 0.00 | 96 | 1018.2 |
| 20260503043926 | 2 | 264 | 0.0 | 0.0 | 0.00 | 0.00 | 0.00 | 96 | 1018.1 |
| 20260503043422 | 2 | 264 | 0.0 | 0.0 | 0.00 | 0.00 | 0.00 | 96 | 1018.1 |
| 20260503042918 | 2 | 264 | 0.0 | 0.0 | 0.00 | 0.00 | 0.00 | 95 | 1018.2 |
| 20260503042415 | 2 | 264 | 0.0 | 0.0 | 0.00 | 0.00 | 0.00 | 95 | 1018.2 |
| 20260503041912 | 2 | 264 | 0.0 | 0.0 | 0.00 | 0.00 | 0.00 | 95 | 1018.3 |
| 20260503041409 | 2 | 264 | 0.0 | 0.0 | 0.00 | 0.00 | 0.00 | 95 | 1018.0 |
| 20260503040906 | 2 | 264 | 0.0 | 0.0 | 0.00 | 0.00 | 0.00 | 95 | 1018.2 |
| 20260503040403 | 2 | 264 | 0.0 | 0.0 | 0.00 | 0.00 | 0.00 | 95 | 1018.2 |
| 20260503035900 | 2 | 264 | 0.0 | 0.0 | 0.00 | 0.00 | 0.00 | 95 | 1018.1 |
| 20260503035357 | 2 | 264 | 0.0 | 0.0 | 0.00 | 0.00 | 0.00 | 95 | 1018.2 |
| 20260503034854 | 2 | 264 | 0.0 | 0.0 | 0.00 | 0.00 | 0.00 | 95 | 1018.1 |
| 20260503034352 | 2 | 264 | 0.0 | 0.0 | 0.00 | 0.00 | 0.00 | 94 | 1018.1 |
| 20260503033849 | 2 | 264 | 0.0 | 0.0 | 0.00 | 0.00 | 0.00 | 94 | 1018.1 |
| 20260503033347 | 2 | 264 | 0.0 | 0.0 | 0.00 | 0.00 | 0.00 | 93 | 1018.1 |
| 20260503032844 | 2 | 264 | 0.0 | 0.0 | 0.00 | 0.00 | 0.00 | 93 | 1018.1 |
| 20260503032343 | 2 | 264 | 0.0 | 0.0 | 0.00 | 0.00 | 0.00 | 93 | 1018.2 |
| 20260503031840 | 2 | 264 | 0.0 | 0.0 | 0.00 | 0.00 | 0.00 | 93 | 1018.2 |
| 20260503031337 | 2 | 264 | 0.0 | 0.0 | 0.00 | 0.00 | 0.00 | 93 | 1018.1 |
| 20260503030834 | 2 | 264 | 0.0 | 0.0 | 0.00 | 0.00 | 0.00 | 93 | 1018.1 |
| 20260503030330 | 2 | 264 | 0.0 | 0.0 | 0.00 | 0.00 | 0.00 | 93 | 1018.2 |
| 20260503025827 | 2 | 264 | 0.0 | 0.0 | 0.00 | 0.00 | 0.00 | 92 | 1018.1 |
| 20260503025325 | 2 | 264 | 0.0 | 0.0 | 0.00 | 0.00 | 0.00 | 92 | 1018.1 |
| 20260503024821 | 3 | 264 | 0.0 | 0.0 | 0.00 | 0.00 | 0.00 | 92 | 1018.2 |
| 20260503024318 | 3 | 264 | 0.0 | 0.0 | 0.00 | 0.00 | 0.00 | 92 | 1018.2 |
| 20260503023815 | 3 | 264 | 0.0 | 0.0 | 0.00 | 0.00 | 0.00 | 91 | 1018.2 |
| 20260503023312 | 3 | 264 | 1.6 | 1.6 | 0.00 | 0.00 | 0.00 | 90 | 1018.3 |
| 20260503022808 | 3 | 264 | 1.6 | 1.6 | 0.00 | 0.00 | 0.00 | 88 | 1018.2 |
| 20260503022304 | 4 | 264 | 0.0 | 0.0 | 0.00 | 0.00 | 0.00 | 86 | 1018.1 |
| 20260503021800 | 4 | 264 | 0.0 | 0.0 | 0.00 | 0.00 | 0.00 | 84 | 1018.1 |
| 20260503021256 | 4 | 264 | 0.0 | 0.0 | 0.00 | 0.00 | 0.00 | 82 | 1018.2 |
| 20260503020754 | 4 | 264 | 0.0 | 1.6 | 0.00 | 0.00 | 0.00 | 81 | 1018.3 |
| 20260503020251 | 5 | 264 | 0.0 | 0.0 | 0.00 | 0.00 | 0.00 | 80 | 1018.3 |
| 20260503015747 | 5 | 264 | 1.6 | 1.6 | 0.00 | 0.00 | 0.00 | 81 | 1018.4 |
| 20260503015244 | 5 | 263 | 1.6 | 1.6 | 0.00 | 0.00 | 0.00 | 80 | 1018.4 |
| 20260503014740 | 5 | 264 | 0.0 | 0.0 | 0.00 | 0.00 | 0.00 | 81 | 1018.3 |
| 20260503014238 | 5 | 265 | 0.0 | 1.6 | 0.00 | 0.00 | 0.00 | 80 | 1018.6 |
| 20260503013735 | 5 | 265 | 1.6 | 1.6 | 0.00 | 0.00 | 0.00 | 80 | 1018.2 |
| 20260503013233 | 5 | 282 | 3.2 | 3.2 | 0.00 | 0.00 | 0.00 | 80 | 1018.4 |
| 20260503012730 | 5 | 264 | 1.6 | 1.6 | 0.00 | 0.00 | 0.00 | 81 | 1018.3 |
| 20260503012227 | 5 | 263 | 0.0 | 1.6 | 0.00 | 0.00 | 0.00 | 81 | 1018.1 |
| 20260503011723 | 5 | 263 | 0.0 | 0.0 | 0.00 | 0.00 | 0.00 | 81 | 1018.2 |
| 20260503011221 | 5 | 263 | 0.0 | 0.0 | 0.00 | 0.00 | 0.00 | 82 | 1018.1 |
| 20260503010716 | 5 | 263 | 0.0 | 0.0 | 0.00 | 0.00 | 0.00 | 79 | 1018.1 |
| 20260503010214 | 5 | 263 | 1.6 | 1.6 | 0.00 | 0.00 | 0.00 | 79 | 1018.2 |
| 20260503005711 | 5 | 263 | 0.0 | 0.0 | 0.00 | 0.00 | 0.00 | 79 | 1018.0 |
| 20260503005208 | 5 | 263 | 1.6 | 1.6 | 0.00 | 0.00 | 0.00 | 78 | 1018.1 |
| 20260503004704 | 5 | 263 | 0.0 | 0.0 | 0.00 | 0.00 | 0.00 | 78 | 1017.9 |
| 20260503004203 | 5 | 263 | 0.0 | 0.0 | 0.00 | 0.00 | 0.00 | 77 | 1018.0 |
| 20260503003659 | 5 | 263 | 0.0 | 0.0 | 0.00 | 0.00 | 0.00 | 77 | 1017.6 |
| 20260503003156 | 5 | 263 | 0.0 | 0.0 | 0.00 | 0.00 | 0.00 | 77 | 1017.7 |
| 20260503002653 | 5 | 292 | 1.6 | 1.6 | 0.00 | 0.00 | 0.00 | 76 | 1017.7 |
| 20260503002150 | 5 | 265 | 0.0 | 0.0 | 0.00 | 0.00 | 0.00 | 76 | 1017.8 |
| 20260503001646 | 5 | 274 | 0.0 | 1.6 | 0.00 | 0.00 | 0.00 | 75 | 1017.6 |
| 20260503001143 | 5 | 265 | 1.6 | 3.2 | 0.00 | 0.00 | 0.00 | 76 | 1017.7 |
| 20260503000640 | 5 | 261 | 0.0 | 0.0 | 0.00 | 0.00 | 0.00 | 76 | 1017.6 |
| 20260503000137 | 5 | 261 | 1.6 | 1.6 | 0.00 | 0.00 | 0.00 | 76 | 1017.6 |
| 20260502235634 | 5 | 259 | 0.0 | 0.0 | 0.00 | 0.00 | 0.00 | 76 | 1017.5 |
| 20260502235132 | 5 | 266 | 1.6 | 1.6 | 0.00 | 0.00 | 0.00 | 76 | 1017.5 |
| 20260502234628 | 5 | 288 | 1.6 | 1.6 | 0.00 | 0.00 | 0.00 | 75 | 1017.4 |
| 20260502234126 | 5 | 271 | 1.6 | 1.6 | 0.00 | 0.00 | 0.00 | 74 | 1017.4 |
| 20260502233621 | 5 | 278 | 3.2 | 3.2 | 0.00 | 0.00 | 0.00 | 75 | 1017.3 |
| 20260502233118 | 6 | 281 | 3.2 | 3.2 | 0.00 | 0.00 | 0.00 | 74 | 1017.4 |
| 20260502232614 | 6 | 257 | 0.0 | 0.0 | 0.00 | 0.00 | 0.00 | 74 | 1017.4 |
| 20260502232112 | 6 | 305 | 4.8 | 6.4 | 0.00 | 0.00 | 0.00 | 74 | 1017.2 |
| 20260502231608 | 6 | 271 | 3.2 | 3.2 | 0.00 | 0.00 | 0.00 | 74 | 1017.2 |
| 20260502231106 | 6 | 258 | 1.6 | 1.6 | 0.00 | 0.00 | 0.00 | 73 | 1016.9 |
| 20260502230604 | 6 | 288 | 1.6 | 1.6 | 0.00 | 0.00 | 0.00 | 72 | 1017.0 |
| 20260502225557 | 6 | 359 | 3.2 | 4.8 | 0.00 | 0.00 | 0.00 | 73 | 1017.0 |
| 20260502225055 | 6 | 273 | 3.2 | 3.2 | 0.00 | 0.00 | 0.00 | 74 | 1017.0 |